CW4221 Weather Reports


Display with metric or nautical units.
time (UTC)temp
F
wind
direction
speed
MPH
gust
MPH
rain 1hr
in
rain 24hr
in
rain mn
in
humidity
%
barometer
mb
20260903065810 79 180 0.0 2.0 0.00 0.00 0.00 71 1016.9
20260903065347 79 180 1.0 2.0 0.00 0.00 0.00 71 1016.8
20260903064842 79 209 1.0 2.0 0.00 0.00 0.00 71 1016.8
20260903064317 79 120 1.0 2.0 0.00 0.00 0.00 71 1016.8
20260903063813 79 152 0.0 2.0 0.00 0.00 0.00 71 1016.9
20260903063329 79 106 0.0 2.0 0.00 0.00 0.00 70 1016.8
20260903062829 79 182 0.0 2.0 0.00 0.00 0.00 70 1016.8
20260903062326 79 182 0.0 2.0 0.00 0.00 0.00 70 1016.8
20260903061819 79 128 0.0 2.0 0.00 0.00 0.00 70 1016.7
20260903061337 79 79 0.0 3.0 0.00 0.00 0.00 69 1016.8
20260903060811 80 203 1.0 3.0 0.00 0.00 0.00 69 1016.8
20260903060348 80 143 0.0 2.0 0.00 0.00 0.00 69 1016.9
20260903055823 80 233 1.0 2.0 0.00 0.00 0.00 68 1016.9
20260903055318 80 185 1.0 3.0 0.00 0.00 0.00 68 1016.8
20260903054819 80 180 1.0 3.0 0.00 0.00 0.00 68 1016.8
20260903054314 80 140 0.0 2.0 0.00 0.00 0.00 68 1016.8
20260903053811 80 180 0.0 2.0 0.00 0.00 0.00 68 1016.8
20260903053327 80 159 0.0 3.0 0.00 0.00 0.00 68 1016.8
20260903052823 80 212 1.0 4.0 0.00 0.00 0.00 68 1016.8
20260903052339 80 163 1.0 4.0 0.00 0.00 0.00 67 1016.8
20260903051834 80 202 0.0 2.0 0.00 0.00 0.00 67 1016.7
20260903051309 80 202 1.0 2.0 0.00 0.00 0.00 67 1016.7
20260903050847 80 190 0.0 2.0 0.00 0.00 0.00 67 1016.7
20260903050325 80 161 0.0 2.0 0.00 0.00 0.00 67 1016.6
20260903045818 80 198 1.0 3.0 0.00 0.00 0.00 67 1016.6
20260903045313 80 205 0.0 3.0 0.00 0.00 0.00 67 1016.5
20260903044811 80 123 0.0 2.0 0.00 0.00 0.00 67 1016.7
20260903044325 80 123 1.0 2.0 0.00 0.00 0.00 67 1016.6
20260903043821 80 123 0.0 2.0 0.00 0.00 0.00 67 1016.6
20260903043339 80 148 0.0 2.0 0.00 0.00 0.00 67 1016.7
20260903042814 81 148 0.0 2.0 0.00 0.00 0.00 66 1016.6
20260903042310 81 167 0.0 2.0 0.00 0.00 0.00 65 1016.5
20260903041809 81 171 0.0 2.0 0.00 0.00 0.00 65 1016.6
20260903041325 81 171 0.0 2.0 0.00 0.00 0.00 64 1016.6
20260903040821 82 229 0.0 3.0 0.00 0.00 0.00 63 1016.6
20260903040317 82 161 1.0 3.0 0.00 0.00 0.00 63 1016.5
20260903035812 82 214 0.0 2.0 0.00 0.00 0.00 63 1016.6
20260903035309 82 234 0.0 2.0 0.00 0.00 0.00 62 1016.6
20260903034846 82 163 0.0 3.0 0.00 0.00 0.00 62 1016.6
20260903034320 82 213 1.0 3.0 0.00 0.00 0.00 62 1016.6
20260903033820 82 215 1.0 4.0 0.00 0.00 0.00 62 1016.6
20260903033316 82 229 1.0 4.0 0.00 0.00 0.00 62 1016.5
20260903032812 82 223 1.0 2.0 0.00 0.00 0.00 62 1016.5
20260903032328 82 191 1.0 2.0 0.00 0.00 0.00 62 1016.4
20260903031824 82 144 1.0 4.0 0.00 0.00 0.00 62 1016.4
20260903031320 82 147 0.0 4.0 0.00 0.00 0.00 62 1016.4
20260903030816 82 185 0.0 2.0 0.00 0.00 0.00 61 1016.4
20260903030316 82 125 0.0 2.0 0.00 0.00 0.00 62 1016.4
20260903025831 82 125 0.0 2.0 0.00 0.00 0.00 61 1016.4
20260903025326 83 199 0.0 2.0 0.00 0.00 0.00 61 1016.3
20260903024820 83 199 0.0 2.0 0.00 0.00 0.00 61 1016.4
20260903024337 83 199 0.0 1.0 0.00 0.00 0.00 61 1016.3
20260903023812 83 199 0.0 1.0 0.00 0.00 0.00 61 1016.2
20260903023348 83 199 0.0 2.0 0.00 0.00 0.00 60 1016.2
20260903022823 83 199 0.0 2.0 0.00 0.00 0.00 60 1016.1
20260903022338 82 199 0.0 2.0 0.00 0.00 0.00 61 1016.0
20260903021814 82 199 0.0 2.0 0.00 0.00 0.00 63 1016.1
20260903021314 80 199 0.0 1.0 0.00 0.00 0.00 65 1016.0
20260903020809 80 142 0.0 0.0 0.00 0.00 0.00 66 1015.9
20260903020325 80 142 0.0 0.0 0.00 0.00 0.00 67 1015.8
20260903015822 80 142 0.0 0.0 0.00 0.00 0.00 66 1015.8
20260903015318 79 142 0.0 2.0 0.00 0.00 0.00 68 1015.8
20260903014815 80 142 0.0 2.0 0.00 0.00 0.00 68 1015.7
20260903014311 80 142 0.0 0.0 0.00 0.00 0.00 68 1015.6
20260903013849 81 142 0.0 1.0 0.00 0.00 0.00 66 1015.5
20260903013327 82 142 0.0 1.0 0.00 0.00 0.00 63 1015.4
20260903012823 82 142 0.0 2.0 0.00 0.00 0.00 62 1015.4
20260903012320 82 142 0.0 1.0 0.00 0.00 0.00 63 1015.3
20260903011817 82 142 0.0 2.0 0.00 0.00 0.00 63 1015.2
20260903011314 82 142 0.0 2.0 0.00 0.00 0.00 63 1015.2
20260903010810 82 142 0.0 2.0 0.00 0.00 0.00 64 1015.1
20260903010326 83 142 0.0 2.0 0.00 0.00 0.00 63 1015.2
20260903005841 83 142 0.0 0.0 0.00 0.00 0.00 60 1015.1
20260903005321 83 142 0.0 0.0 0.00 0.00 0.00 60 1015.1
20260903004817 84 142 0.0 0.0 0.00 0.00 0.00 60 1015.1
20260903004334 85 142 0.0 2.0 0.00 0.00 0.00 57 1015.1
20260903003849 86 142 0.0 2.0 0.00 0.00 0.00 55 1015.1
20260903003324 87 142 0.0 2.0 0.00 0.00 0.00 54 1015.1
20260903002840 88 142 0.0 2.0 0.00 0.00 0.00 52 1015.1
20260903002316 89 142 0.0 2.0 0.00 0.00 0.00 50 1015.1
20260903001812 89 142 0.0 2.0 0.00 0.00 0.00 49 1015.1
20260903001328 90 142 0.0 2.0 0.00 0.00 0.00 48 1015.1
20260903000809 90 75 0.0 3.0 0.00 0.00 0.00 48 1015.1
20260903000326 91 87 0.0 3.0 0.00 0.00 0.00 47 1015.1
20260902235843 91 86 1.0 3.0 0.00 0.00 0.00 46 1015.1
20260902235318 92 115 1.0 4.0 0.00 0.00 0.00 45 1015.1
20260902234834 93 110 1.0 4.0 0.00 0.00 0.00 44 1015.1
20260902234327 93 134 0.0 2.0 0.00 0.00 0.00 45 1015.1
20260902233824 93 134 1.0 3.0 0.00 0.00 0.00 43 1015.2
20260902233320 94 103 1.0 3.0 0.00 0.00 0.00 43 1015.2
20260902232816 94 98 1.0 3.0 0.00 0.00 0.00 42 1015.2
20260902232317 94 157 0.0 6.0 0.00 0.00 0.00 42 1015.2
20260902231812 94 123 1.0 6.0 0.00 0.00 0.00 42 1015.2
20260902231309 95 78 1.0 3.0 0.00 0.00 0.00 42 1015.2
20260902230826 95 159 1.0 4.0 0.00 0.00 0.00 41 1015.3
20260902230322 95 96 2.0 4.0 0.00 0.00 0.00 41 1015.4
20260902225817 95 175 2.0 4.0 0.00 0.00 0.00 40 1015.4
20260902225313 95 90 1.0 6.0 0.00 0.00 0.00 40 1015.4
20260902224812 96 122 2.0 6.0 0.00 0.00 0.00 40 1015.4
20260902224328 96 103 2.0 4.0 0.00 0.00 0.00 41 1015.5
20260902223825 96 136 2.0 6.0 0.00 0.00 0.00 40 1015.5
20260902223321 96 153 2.0 7.0 0.00 0.00 0.00 40 1015.5
20260902222837 96 103 2.0 5.0 0.00 0.00 0.00 40 1015.5
20260902222331 96 232 1.0 7.0 0.00 0.00 0.00 39 1015.5
20260902221826 96 148 2.0 5.0 0.00 0.00 0.00 41 1015.5
20260902221323 96 218 2.0 4.0 0.00 0.00 0.00 39 1015.5
20260902220838 96 170 2.0 7.0 0.00 0.00 0.00 40 1015.5
20260902220319 96 157 3.0 7.0 0.00 0.00 0.00 40 1015.5
20260902215815 97 201 3.0 7.0 0.00 0.00 0.00 39 1015.5
20260902215312 96 180 2.0 7.0 0.00 0.00 0.00 39 1015.6
20260902214827 96 238 1.0 7.0 0.00 0.00 0.00 40 1015.6
20260902214323 96 232 3.0 5.0 0.00 0.00 0.00 40 1015.7
20260902213819 97 105 2.0 6.0 0.00 0.00 0.00 40 1015.7
20260902213335 97 164 2.0 5.0 0.00 0.00 0.00 39 1015.7
20260902212814 97 138 2.0 5.0 0.00 0.00 0.00 40 1015.8
20260902212310 97 140 1.0 5.0 0.00 0.00 0.00 40 1015.8
20260902211826 97 92 2.0 6.0 0.00 0.00 0.00 41 1015.9
20260902211322 96 169 2.0 6.0 0.00 0.00 0.00 40 1016.0
20260902210818 96 49 3.0 8.0 0.00 0.00 0.00 40 1016.0
20260902210314 97 103 3.0 10.0 0.00 0.00 0.00 41 1016.1
20260902205809 96 180 4.0 10.0 0.00 0.00 0.00 39 1016.1
20260902205310 97 173 3.0 9.0 0.00 0.00 0.00 43 1016.1
20260902204847 97 90 2.0 4.0 0.00 0.00 0.00 43 1016.2
20260902204342 97 92 2.0 5.0 0.00 0.00 0.00 41 1016.2
20260902203817 96 227 3.0 7.0 0.00 0.00 0.00 40 1016.3
20260902203313 97 199 2.0 7.0 0.00 0.00 0.00 41 1016.4
20260902202809 97 205 3.0 6.0 0.00 0.00 0.00 40 1016.4
20260902202326 96 101 2.0 6.0 0.00 0.00 0.00 40 1016.4
20260902201823 96 87 1.0 7.0 0.00 0.00 0.00 43 1016.5
20260902201319 96 108 3.0 12.0 0.00 0.00 0.00 43 1016.7
20260902200820 97 119 3.0 12.0 0.00 0.00 0.00 44 1016.7
20260902200316 97 142 2.0 6.0 0.00 0.00 0.00 44 1016.8
20260902195811 97 96 1.0 7.0 0.00 0.00 0.00 41 1016.9
20260902195327 96 94 3.0 7.0 0.00 0.00 0.00 43 1016.9
20260902194823 96 222 2.0 6.0 0.00 0.00 0.00 41 1017.0
20260902194319 95 98 1.0 5.0 0.00 0.00 0.00 42 1017.1
20260902193815 95 184 2.0 5.0 0.00 0.00 0.00 46 1017.1
20260902193315 93 85 2.0 7.0 0.00 0.00 0.00 45 1017.2
20260902192811 95 122 2.0 7.0 0.00 0.00 0.00 43 1017.2
20260902192327 96 35 1.0 8.0 0.00 0.00 0.00 46 1017.3
20260902191823 95 88 4.0 10.0 0.00 0.00 0.00 42 1017.3
20260902191319 95 188 2.0 8.0 0.00 0.00 0.00 46 1017.4
20260902190814 95 237 2.0 8.0 0.00 0.00 0.00 48 1017.5
20260902190331 94 180 2.0 5.0 0.00 0.00 0.00 48 1017.6
20260902185824 93 240 2.0 10.0 0.00 0.00 0.00 47 1017.6
20260902185324 94 109 4.0 10.0 0.00 0.00 0.00 47 1017.7
20260902184821 93 56 1.0 7.0 0.00 0.00 0.00 51 1017.8
20260902184318 93 198 2.0 7.0 0.00 0.00 0.00 48 1017.9
20260902183814 93 222 1.0 7.0 0.00 0.00 0.00 48 1018.0
20260902183329 93 234 3.0 7.0 0.00 0.00 0.00 48 1018.0
20260902182825 94 196 2.0 7.0 0.00 0.00 0.00 48 1018.0
20260902182320 94 218 2.0 8.0 0.00 0.00 0.00 52 1018.1
20260902181815 94 248 2.0 8.0 0.00 0.00 0.00 47 1018.1
20260902181316 94 232 3.0 7.0 0.00 0.00 0.00 48 1018.2
20260902180812 93 88 2.0 4.0 0.00 0.00 0.00 51 1018.3
20260902180327 93 240 2.0 4.0 0.00 0.00 0.00 49 1018.3
20260902175823 92 255 2.0 8.0 0.00 0.00 0.00 49 1018.3
20260902175319 94 267 5.0 7.0 0.00 0.00 0.00 50 1018.4
20260902174835 92 269 1.0 9.0 0.00 0.00 0.00 50 1018.6
20260902174310 93 248 3.0 9.0 0.00 0.00 0.00 50 1018.6
20260902173810 93 267 2.0 7.0 0.00 0.00 0.00 52 1018.7
20260902173327 93 211 2.0 7.0 0.00 0.00 0.00 49 1018.8
20260902172823 93 146 3.0 7.0 0.00 0.00 0.00 49 1018.7
20260902172319 93 240 2.0 8.0 0.00 0.00 0.00 50 1018.8
20260902171815 93 244 3.0 6.0 0.00 0.00 0.00 50 1018.9
20260902171311 92 196 3.0 6.0 0.00 0.00 0.00 52 1018.9
20260902170847 92 216 5.0 7.0 0.00 0.00 0.00 49 1019.1
20260902170322 93 213 3.0 7.0 0.00 0.00 0.00 50 1019.1
20260902165821 92 246 4.0 8.0 0.00 0.00 0.00 51 1019.1
20260902165318 92 225 3.0 6.0 0.00 0.00 0.00 52 1019.1
20260902164835 91 241 2.0 9.0 0.00 0.00 0.00 53 1019.2
20260902164311 91 244 4.0 9.0 0.00 0.00 0.00 52 1019.3
20260902163827 91 257 6.0 11.0 0.00 0.00 0.00 53 1019.3
20260902163322 91 265 4.0 8.0 0.00 0.00 0.00 53 1019.3
20260902162839 91 216 4.0 7.0 0.00 0.00 0.00 53 1019.4
20260902162315 91 219 4.0 6.0 0.00 0.00 0.00 54 1019.5
20260902161816 90 228 3.0 9.0 0.00 0.00 0.00 54 1019.5
20260902161311 90 263 6.0 9.0 0.00 0.00 0.00 54 1019.5
20260902160848 90 242 4.0 9.0 0.00 0.00 0.00 54 1019.5
20260902160323 90 249 4.0 8.0 0.00 0.00 0.00 55 1019.6
20260902155819 90 123 3.0 9.0 0.00 0.00 0.00 54 1019.6
20260902155335 90 207 3.0 9.0 0.00 0.00 0.00 55 1019.5
20260902154830 89 277 6.0 9.0 0.00 0.00 0.00 56 1019.5
20260902154326 89 246 4.0 7.0 0.00 0.00 0.00 56 1019.5
20260902153822 89 223 3.0 8.0 0.00 0.00 0.00 56 1019.5
20260902153322 89 255 4.0 9.0 0.00 0.00 0.00 57 1019.5
20260902152818 89 240 5.0 9.0 0.00 0.00 0.00 56 1019.5
20260902152314 89 235 2.0 8.0 0.00 0.00 0.00 59 1019.4
20260902151811 88 227 3.0 7.0 0.00 0.00 0.00 58 1019.4
20260902151327 88 187 3.0 12.0 0.00 0.00 0.00 58 1019.4
20260902150823 88 239 5.0 12.0 0.00 0.00 0.00 58 1019.4
20260902150318 88 264 3.0 5.0 0.00 0.00 0.00 59 1019.5
20260902145814 87 208 2.0 5.0 0.00 0.00 0.00 60 1019.5
20260902145310 86 233 2.0 6.0 0.00 0.00 0.00 61 1019.5
20260902144811 86 232 4.0 7.0 0.00 0.00 0.00 62 1019.4
20260902144348 86 245 2.0 6.0 0.00 0.00 0.00 62 1019.4
20260902143826 86 248 3.0 8.0 0.00 0.00 0.00 62 1019.5
20260902143319 86 267 3.0 8.0 0.00 0.00 0.00 62 1019.4
20260902142835 85 205 2.0 6.0 0.00 0.00 0.00 66 1019.4
20260902142330 85 181 3.0 6.0 0.00 0.00 0.00 63 1019.3
20260902141825 84 242 2.0 6.0 0.00 0.00 0.00 65 1019.4
20260902141341 84 166 2.0 10.0 0.00 0.00 0.00 65 1019.4
20260902140815 84 213 4.0 10.0 0.00 0.00 0.00 65 1019.4
20260902140311 83 243 2.0 5.0 0.00 0.00 0.00 67 1019.4
20260902135831 83 220 2.0 4.0 0.00 0.00 0.00 68 1019.4
20260902135327 83 207 1.0 4.0 0.00 0.00 0.00 69 1019.5
20260902134824 82 206 2.0 5.0 0.00 0.00 0.00 68 1019.5
20260902134320 82 201 2.0 5.0 0.00 0.00 0.00 69 1019.5
20260902133815 81 194 1.0 4.0 0.00 0.00 0.00 70 1019.6
20260902133311 81 154 1.0 4.0 0.00 0.00 0.00 70 1019.6
20260902132849 81 223 1.0 3.0 0.00 0.00 0.00 72 1019.6
20260902132325 80 157 1.0 3.0 0.00 0.00 0.00 71 1019.6
20260902131841 80 187 1.0 3.0 0.00 0.00 0.00 72 1019.6
20260902131320 79 144 1.0 2.0 0.00 0.00 0.00 73 1019.5
20260902130817 79 216 0.0 2.0 0.00 0.00 0.00 72 1019.6
20260902130314 78 195 0.0 2.0 0.00 0.00 0.00 73 1019.6
20260902125810 78 167 0.0 2.0 0.00 0.00 0.00 73 1019.5
20260902125326 78 225 0.0 2.0 0.00 0.00 0.00 74 1019.5
20260902124822 77 202 0.0 2.0 0.00 0.00 0.00 74 1019.5
20260902124318 77 184 0.0 2.0 0.00 0.00 0.00 74 1019.5
20260902123818 77 136 0.0 2.0 0.00 0.00 0.00 74 1019.6
20260902123335 77 162 0.0 2.0 0.00 0.00 0.00 74 1019.6
20260902122811 77 142 1.0 2.0 0.00 0.00 0.00 75 1019.6
20260902122327 76 151 0.0 2.0 0.00 0.00 0.00 76 1019.5
20260902121823 76 171 0.0 2.0 0.00 0.00 0.00 76 1019.4
20260902121341 75 155 0.0 2.0 0.00 0.00 0.00 77 1019.3
20260902120815 75 149 0.0 2.0 0.00 0.00 0.00 77 1019.2
20260902120311 75 149 0.0 2.0 0.00 0.00 0.00 77 1019.2
20260902115811 75 149 0.0 2.0 0.00 0.00 0.00 77 1019.1
20260902115327 75 149 0.0 2.0 0.00 0.00 0.00 77 1019.0
20260902114823 75 149 0.0 2.0 0.00 0.00 0.00 78 1018.9
20260902114318 74 131 0.0 2.0 0.00 0.00 0.00 79 1018.9
20260902113814 73 131 0.0 2.0 0.00 0.00 0.00 80 1018.9
20260902113310 73 131 0.0 2.0 0.00 0.00 0.00 80 1018.8
20260902112826 73 131 0.0 2.0 0.00 0.00 0.00 80 1018.8
20260902112322 73 131 0.0 2.0 0.00 0.00 0.00 81 1018.8
20260902111823 73 131 0.0 2.0 0.00 0.00 0.00 81 1018.9
20260902111318 73 131 0.0 0.0 0.00 0.00 0.00 80 1018.7
20260902110816 72 131 0.0 0.0 0.00 0.00 0.00 82 1018.7
20260902110312 72 131 0.0 0.0 0.00 0.00 0.00 82 1018.7
20260902105827 72 131 0.0 0.0 0.00 0.00 0.00 81 1018.6
20260902105322 72 131 0.0 0.0 0.00 0.00 0.00 81 1018.6
20260902104818 73 131 0.0 0.0 0.00 0.00 0.00 81 1018.6
20260902104318 73 131 0.0 0.0 0.00 0.00 0.00 79 1018.6
20260902103814 74 131 0.0 0.0 0.00 0.00 0.00 77 1018.6
20260902103312 75 131 0.0 0.0 0.00 0.00 0.00 75 1018.6
20260902102828 76 131 0.0 2.0 0.00 0.00 0.00 74 1018.5
20260902102344 77 131 0.0 2.0 0.00 0.00 0.00 73 1018.5
20260902101820 77 119 0.0 2.0 0.00 0.00 0.00 72 1018.4
20260902101315 77 118 1.0 3.0 0.00 0.00 0.00 72 1018.3
20260902100813 77 150 1.0 2.0 0.00 0.00 0.00 72 1018.3
20260902100314 77 150 0.0 2.0 0.00 0.00 0.00 71 1018.4
20260902095827 77 198 0.0 3.0 0.00 0.00 0.00 71 1018.3
20260902095344 77 229 0.0 3.0 0.00 0.00 0.00 71 1018.4
20260902094820 77 114 0.0 3.0 0.00 0.00 0.00 71 1018.4
20260902094315 77 141 1.0 3.0 0.00 0.00 0.00 71 1018.3
20260902093812 77 136 0.0 2.0 0.00 0.00 0.00 71 1018.4
20260902093349 77 156 1.0 2.0 0.00 0.00 0.00 71 1018.3
20260902092823 77 196 0.0 2.0 0.00 0.00 0.00 72 1018.3
20260902092319 77 188 0.0 3.0 0.00 0.00 0.00 72 1018.2
20260902091839 76 199 1.0 3.0 0.00 0.00 0.00 73 1018.1
20260902091315 76 242 0.0 2.0 0.00 0.00 0.00 73 1018.1
20260902090811 76 111 0.0 2.0 0.00 0.00 0.00 74 1018.1
20260902090328 76 132 1.0 2.0 0.00 0.00 0.00 74 1018.2
20260902085843 76 151 0.0 2.0 0.00 0.00 0.00 75 1018.2
20260902085338 76 151 0.0 2.0 0.00 0.00 0.00 75 1018.2
20260902084814 76 151 0.0 2.0 0.00 0.00 0.00 74 1018.2
20260902084309 76 151 0.0 2.0 0.00 0.00 0.00 75 1018.3
20260902083810 75 93 1.0 2.0 0.00 0.00 0.00 75 1018.2
20260902083325 75 119 1.0 2.0 0.00 0.00 0.00 75 1018.2
20260902082822 75 111 1.0 2.0 0.00 0.00 0.00 76 1018.2
20260902082318 75 173 0.0 2.0 0.00 0.00 0.00 77 1018.3
20260902081814 74 196 0.0 1.0 0.00 0.00 0.00 78 1018.3
20260902081331 74 196 0.0 0.0 0.00 0.00 0.00 79 1018.3
20260902080827 74 197 0.0 0.0 0.00 0.00 0.00 78 1018.3
20260902080322 74 196 0.0 1.0 0.00 0.00 0.00 79 1018.3
20260902075821 73 196 0.0 0.0 0.00 0.00 0.00 80 1018.3
20260902075317 73 196 0.0 0.0 0.00 0.00 0.00 80 1018.3
20260902074813 73 196 0.0 0.0 0.00 0.00 0.00 79 1018.3
20260902074349 74 196 0.0 0.0 0.00 0.00 0.00 78 1018.3
20260902073825 74 197 0.0 2.0 0.00 0.00 0.00 79 1018.3
20260902073322 74 196 0.0 2.0 0.00 0.00 0.00 78 1018.2
20260902072818 74 197 0.0 2.0 0.00 0.00 0.00 78 1018.3
20260902072313 74 196 0.0 0.0 0.00 0.00 0.00 77 1018.2
20260902071813 74 196 0.0 0.0 0.00 0.00 0.00 76 1018.2
20260902071329 75 196 0.0 0.0 0.00 0.00 0.00 74 1018.2
20260902070825 76 196 0.0 0.0 0.00 0.00 0.00 73 1018.2
20260902070321 77 196 0.0 2.0 0.00 0.00 0.00 71 1018.3